Regional Weather Roundup
Issued by NWS

Home | Current Version | Previous Version | Graphics & Text | Print | Product List | Glossary On
Versions: 1 2 3 4 5 6 7 8 9 10 11 12 13 14 15 16 17 18 19 20 21 22 23 24 25 26 27 28 29 30 31 32 33 34 35 36 37 38 39 40 41 42 43 44 45 46 47 48 49 50
000
ASUS43 KMKX 061600
RWRWI

WISCONSIN REGIONAL WEATHER ROUNDUP
NATIONAL WEATHER SERVICE MILWAUKEE/SULLIVAN WI
1100 AM CDT WED MAY 06 2015

NOTE: "FAIR" INDICATES FEW OR NO CLOUDS BELOW 12,000 FEET WITH NO
SIGNIFICANT WEATHER AND/OR OBSTRUCTIONS TO VISIBILITY.

WIZ001-002-006>008-014>016-023>028-061700-
NORTHWEST WISCONSIN

CITY           SKY/WX    TMP DP  RH WIND       PRES   REMARKS
SUPERIOR ARPT  CLOUDY    44  38  81 NE7       30.11S
ASHLAND        LGT RAIN  53  52  96 CALM      30.14S FOG
HAYWARD        CLOUDY    58  50  75 E9        30.11F
SIREN          CLOUDY    58  52  79 SE8       30.08S
CUMBERLAND     CLOUDY    54  50  87 SE10      30.10F FOG
RICE LAKE      CLOUDY    55  51  85 E10       30.12F
CHETEK         CLOUDY    55  52  89 E5        30.11F
LADYSMITH      PTSUNNY   55  52  90 E10       30.15S
EAU CLAIRE     NOT AVBL
MENOMONIE      CLOUDY    57  54  88 SE10      30.11S FOG
NEW RICHMOND   CLOUDY    57  56  95 SE12      30.07F FOG
OSCEOLA        CLOUDY    57  57 100 E9        30.09F FOG
$$

WIZ003>005-009-010-017-018-061700-
NORTH CENTRAL WISCONSIN

CITY           SKY/WX    TMP DP  RH WIND       PRES   REMARKS
MANITOWISH WTR RAIN      48  47  97 SE5       30.19S
ARBOR VITAE    LGT RAIN  49  47  91 CALM      30.19R
WOODRUFF       LGT RAIN  49  47  91 CALM      30.19R
RHINELANDER    LGT RAIN  54  49  83 SE7       30.19F
EAGLE RIVER    CLOUDY    51  41  68 SE8       30.19F
LAND O LAKES   DRIZZLE   52  42  69 S5        30.20F
PHILLIPS       CLOUDY    50  49  96 E7        30.16S
TOMAHAWK       CLOUDY    50  48  93 E5        30.18F
MEDFORD        PTSUNNY   55  51  87 SE8       30.15S
MERRILL        CLOUDY    49  49 100 E7        30.19S
$$

WIZ029-030-035-036-043>047-061700-
CENTRAL WISCONSIN

CITY           SKY/WX    TMP DP  RH WIND       PRES   REMARKS
WAUSAU         CLOUDY    56  50  80 SE8       30.16S
MOSINEE        CLOUDY    57  54  88 E6        30.17F
MARSHFIELD     PTSUNNY   63  52  67 SE10      30.15S
STEVENS POINT  PTSUNNY   54  49  83 E8        30.17F
WAUPACA        PTSUNNY   62  51  66 E6        30.19F
WAUTOMA        NOT AVBL
WISC RAPIDS    MOSUNNY   64  52  64 VRB7      30.17S
CAMP DOUGLAS   LGT RAIN  55  55 100 E7        30.14F FOG
$$

WIZ011>013-019>022-031-037>040-048>050-061700-
NORTHEAST WISCONSIN

CITY           SKY/WX    TMP DP  RH WIND       PRES   REMARKS
ANTIGO         LGT RAIN  49  49  99 E7        30.20S
SHAWANO        LGT RAIN  55  50  85 E7        30.21F
OCONTO         CLOUDY    53  47  80 SE6       30.22S
STURGEON BAY   CLOUDY    52  43  71 SE6       30.25S
GREEN BAY      CLOUDY    56  50  80 NE6       30.22R
MANITOWOC      LGT RAIN  48  46  93 SE5       30.23S VSB 1/4
APPLETON       LGT RAIN  57  48  72 CALM      30.20S
CLINTONVILLE   LGT RAIN  50  48  93 SE6       30.20F
OSHKOSH        PTSUNNY   59  52  77 E8        30.19F
$$

WIZ032>034-041-042-053>061-061700-
SOUTHWEST WISCONSIN

CITY           SKY/WX    TMP DP  RH WIND       PRES   REMARKS
LA CROSSE      CLOUDY    62  56  80 E5        30.10F
SPARTA         DRIZZLE   59  56  88 E7        30.13F
VIROQUA        CLOUDY    57  57 100 SE8       30.13S
BOSCOBEL       PTSUNNY   65  58  78 VRB3      30.12F
PRAIRIE DU CHI CLOUDY    60  55  82 E7        30.11F
PLATTEVILLE    CLOUDY    59  58  97 E10       30.13F
$$

WIZ056-057-062-063-064-067-068-061700-
SOUTH CENTRAL WISCONSIN

CITY           SKY/WX    TMP DP  RH WIND       PRES   REMARKS
REEDSBURG      CLOUDY    58  55  88 CALM      30.15S
BARABOO/DELLS  NOT AVBL
LONE ROCK      CLOUDY    58  55  90 VRB5      30.15F FOG
MINERAL POINT  PTSUNNY   61  59  94 SE9       30.14S FOG
MADISON        CLOUDY    56  54  93 S6        30.17S FOG
MIDDLETON      CLOUDY    57  56  96 SE5       30.17S
WATERTOWN      CLOUDY    58  56  94 CALM      30.19R FOG
MONROE         CLOUDY    55  55 100 E7        30.15F FOG
JANESVILLE     CLOUDY    63  57  82 E8        30.15F FOG
$$

WIZ051-052-058>065-066-070>072-061700-
SOUTHEAST WISCONSIN

CITY           SKY/WX    TMP DP  RH WIND       PRES   REMARKS
MILWAUKEE      PTSUNNY   50  45  83 NE6       30.21S
WAUKESHA       TSTM      54  52  94 E8        30.20S
MILWAUKEE/TIMM RAIN      52  46  82 CALM      30.21S
RACINE         CLOUDY    52  49  89 NE7       30.21S
BURLINGTON     PTSUNNY   56  53  89 E3        30.18F FOG
KENOSHA        PTSUNNY   57  55  93 E8        30.19S FOG
FOND DU LAC    MOSUNNY   61  54  77 SE8       30.19S
SHEBOYGAN      CLOUDY    52  51  97 SE8       30.22S FOG
WEST BEND      CLOUDY    54  50  87 SE8       30.20F
JUNEAU         CLOUDY    58  54  88 SE7       30.20R
$$

LSZ147-162-061700-
LAKE SUPERIOR

STATION/POSITION TIME  TEMP    WIND        PRES    WAVE
                       AIR SEA DIR/SP/G            HT/PER
                 (UTC) (F)     (DEG/KT/KT) (MB)    (FT/S)
W MID LAKE BUOY  1450   40 36   90/  8/  8 1022.3F   0
DEVILS ISLAND    1500   47      90/  8/  9 1021.4F
PORT WING        1526   41      40/  4     1020.3S
SAXON HARBOR     1540   58     180/  1/  9 1020.7R
$$

LMZ867-665-643>646-061700-
LAKE MICHIGAN

STATION/POSITION TIME  TEMP    WIND        PRES    WAVE
                       AIR SEA DIR/SP/G            HT/PER
                 (UTC) (F)     (DEG/KT/KT) (MB)    (FT/S)
CHAMBERS ISLAND  1500   50      30/  4/  4 1023.7F
NORTHPORT PIER   1500   46     140/  5/  7 1024.0S
SISTER BAY       1402   57        CALM       N/A
KEWAUNEE LAKESHO 1500           70/  2/  5 1023.0F
SHEBOYGAN LAKESH 1500   44      10/  3/  4 1024.3S
PORT WASHINGTON  1500   46      50/  3/  5 1024.0
ATWATER BUOY     1500   43      60/  4/  6 1024.2S
MILWAUKEE LAKESH 1500   43      50/  6/  7   N/A
KENOSHA   LAKESH 1500   44      20/  5/  6 1022.7S
$$

TC  - TEMPERATURE IN CELSIUS
VSB - VISIBILITY IN STATUTE MILES
WCI - WIND CHILL INDEX
HX  - HEAT INDEX



USA.gov is the U.S. government's official web portal to all federal, state and local government web resources and services.